Back to catalog

USA 72

AliveMilitaryHEO
NORAD 21775·PAYLOAD·🇺🇸 United States

Launched Nov 8, 1991 from Vandenberg Space Force Base

Loading…

Next Passes (next 24 hours)

TLE

FreshSource: Space-Track

Epoch: Sep 14, 2026, 09:19 UTC

1 21775U 91076A   26257.38831059  .00000015  00000-0  00000-0 0  9990
2 21775  63.3473 173.7375 3333135 273.0891  50.0432  5.53396010 47494

Track USA 72 in real time with AllMySat

Download on the App Store